Location: Chandrammap?lem
(16.9200°N, 81.0051°E)
Time: 21:14:54
(UTC+00:00)

Cosmos 2227 Rocket - Pass Details

Date: 29 May 2024
Orbit: 837 x 845 km, 71.0° (Epoch: 14 June)

Event Time Altitude Azimuth Distance (km) Brightness Sun altitude
Exits shadow 21:14:17 42° 55° (NE) 1,180 3.2 -34.8°
Drops below altitude 10° 21:18:16 10° 28° (NNE) 2,460 5.3 -34.1°
Sets 21:20:45 0° 24° (NNE) 3,396 6.2 -33.7°
